Location: Muenchen
(48.1800°N, 11.5800°E)
Time: 23:37:16
(UTC+01:00)

Tiros 1 - Visible Passes

Search period start: 03 March 2015 00:00
Search period end: 13 March 2015 00:00
Orbit: 632 x 667 km, 48.4° (Epoch: 01 March)

Date Brightness Start Highest point End Pass type
(mag) Time Alt. Az. Time Alt. Az. Time Alt. Az.
04 Mar 8.9 19:59:27 10° SSW 20:01:24 18° S 20:01:24 18° S visible
05 Mar 9.3 18:47:25 10° SE 18:48:10 10° SE 18:49:08 10° ESE visible
05 Mar 8.5 20:25:06 10° SW 20:27:46 28° SSW 20:27:46 28° SSW visible
06 Mar 8.6 19:10:52 10° S 19:14:26 21° SE 19:16:13 18° ESE visible
06 Mar 8.6 20:51:23 10° WSW 20:53:58 31° SW 20:53:58 31° SW visible
07 Mar 7.8 19:36:26 10° SW 19:40:51 37° SSE 19:42:19 30° ESE visible
07 Mar 9.1 21:18:01 10° WSW 21:20:03 25° WSW 21:20:03 25° WSW visible
08 Mar 7.2 20:02:41 10° WSW 20:07:25 60° SSE 20:08:17 51° ESE visible
08 Mar 9.6 21:44:48 10° W 21:46:00 18° W 21:46:00 18° W visible
09 Mar 8.0 18:47:46 10° SW 18:52:08 36° SSE 18:56:25 11° E visible
09 Mar 7.0 20:29:17 10° WSW 20:34:07 82° SSE 20:34:08 82° SSE visible
09 Mar 10.1 22:11:36 10° W 22:11:52 11° W 22:11:52 11° W visible
10 Mar 7.4 19:13:58 10° SW 19:18:41 58° SSE 19:22:12 18° E visible
10 Mar 7.7 20:56:04 10° W 20:59:55 57° W 20:59:55 57° W visible
11 Mar 7.1 19:40:33 10° WSW 19:45:22 81° SSE 19:47:54 28° E visible
11 Mar 8.6 21:22:51 10° W 21:25:37 34° W 21:25:37 34° W visible
12 Mar 7.1 20:07:19 10° W 20:12:09 87° N 20:13:34 47° E visible
12 Mar 9.4 21:49:38 10° W 21:51:17 21° W 21:51:17 21° W visible
